This is the latest recevied weather packets stored in our database for station/object IR3AS. If no packets are shown the sender has not sent any weather packets the latest 10 day(s).
| Time | Temp. | Humidity | Pressure | Rain* | Wind** | Luminosity | Snow |
|---|---|---|---|---|---|---|---|
| 1788026094 | 12.78° C | 89% | 866.7 hPa | 0 mm | - | - | - |
| 1788025856 | 12.78° C | 89% | 867.2 hPa | 0 mm | - | - | - |
| 1788025794 | 12.78° C | 89% | 867.2 hPa | 0 mm | - | - | - |
| 1788025494 | 12.78° C | 89% | 867.2 hPa | 0 mm | - | - | - |
| 1788025194 | 12.78° C | 89% | 867.3 hPa | 0 mm | - | - | - |
| 1788024895 | 12.78° C | 88% | 867.4 hPa | 0 mm | - | - | - |
| 1788024594 | 12.78° C | 88% | 867.4 hPa | 0 mm | - | - | - |
| 1788024294 | 13.33° C | 87% | 867.6 hPa | 0 mm | - | - | - |
| 1788023994 | 13.33° C | 87% | 867.8 hPa | 0 mm | - | - | - |
| 1788023697 | 13.33° C | 86% | 868.1 hPa | 0 mm | - | - | - |
| 1788023395 | 13.89° C | 85% | 868.2 hPa | 0 mm | - | - | - |
| 1788023094 | 13.89° C | 80% | 868.1 hPa | 0 mm | - | - | - |
| 1788022794 | 13.89° C | 79% | 868 hPa | 0 mm | - | - | - |
| 1788022496 | 14.44° C | 77% | 868.1 hPa | 0 mm | - | - | - |
| 1788022234 | 14.44° C | 75% | 868.2 hPa | 0 mm | - | - | - |
| 1788022194 | 14.44° C | 75% | 868.2 hPa | 0 mm | - | - | - |
| 1788021894 | 15° C | 73% | 868.3 hPa | 0 mm | - | - | - |
| 1788021594 | 15.56° C | 71% | 868.3 hPa | 0 mm | - | - | - |
| 1788021295 | 17.22° C | 68% | 868 hPa | 0 mm | - | - | - |
| 1788020995 | 18.33° C | 63% | 868.1 hPa | 0 mm | - | - | - |
| 1788020694 | 20° C | 62% | 867.9 hPa | 0 mm | - | - | - |
| 1788020394 | 20.56° C | 62% | 868 hPa | 0 mm | - | - | - |
| 1788020096 | 20.56° C | 65% | 868.2 hPa | 0 mm | - | - | - |
| 1788019795 | 19.44° C | 68% | 868.1 hPa | 0 mm | - | - | - |
| 1788019495 | 18.33° C | 65% | 867.7 hPa | 0 mm | - | - | - |
* Rain latest hour (hover to see other rain measurements)
** Current wind speed in m/s (hover to see current wind gust speed)